sat.trackr.live / text

‹ back to catalog

SKYSAT-A

NORAD 39418 · 2013-066C

PAYLOAD ACTIVE UNKNOWN

§ Identity

Operator
Country
US
Launch date
2013-11-21
Launch site
DLS
Launch vehicle
Mass (kg)
RCS (m²)
0.31

Purposes: earth_obs

External: N2YO · Heavens-Above · Gunter

§ Orbital elements

Epoch: 2026-09-08T15:28:30.472896Z

Period
95.15 min
Inclination
97.3740°
Eccentricity
0.0021946
Mean motion
15.13374994 rev/d
Perigee alt
510.8 km
Apogee alt
541.1 km
Semi-major
6,904.1 km
B*
1.2730e-4
RAAN
298.3688°
Arg perigee
29.5271°
Mean anomaly
330.7195°
Rev number
70,110

§ Raw data

SKYSAT-A1 39418U 13066C   26251.64479714  .00002219  00000+0  12730-3 0  99982 39418  97.3740 298.3688 0021946  29.5271 330.7195 15.13374994701102

JSON: /api/v1/satellites/39418 · /tle

For live sub-satellite position, see the globe view (requires WebGL).

§ Visibility from observer

Set your observer location to see the next 7 days of passes ≥ 10°. The values pass through the URL so the page stays shareable.

No JS? Fill the form by hand. The geolocation button needs JavaScript.